World > North America > United States > Montana   City of Billings, MT

Billings, Montana Regional Weather

Lat: 45.79N, Lon: 108.54W
Wx Zone: MTZ035
Feedback

Billings, MT Regional Weather

Expires:202001231400;;391867
ASUS45 KTFX 231310
RWRMT 
Montana Regional Weather Roundup
National Weather Service Great Falls MT
600 AM MST THU JAN 23 2020

NOTE: "FAIR" indicates few or no clouds below 12,000 feet with no
significant weather and/or obstructions to visibility.


MTZ028>42-056>058-231400-
Southcentral and southeast Montana
  
CITY           SKY/WX    TMP DP  RH WIND       PRES   REMARKS
Baker          CLOUDY    28  26  92 W7        30.05S WCI  21          
Big Timber     CLOUDY    34  21  60 W26G33    30.09F WCI  21          
Billings       MOCLDY    28  14  55 SW12      30.10S WCI  18          
Forsyth          N/A     28  21  74 W6        30.10S WCI  22          
Hardin         MOSUNNY   21  18  86 S6        30.10  WCI  14          
Harlowton      MOCLDY    31  20  63 W18       30.07R WCI  19          
Laurel           N/A     28  14  54 W6        30.12S WCI  22          
Livingston     CLOUDY    34  19  54 SW20G26   30.11R WCI  23          
Miles City     FAIR      21  18  88 NW10      30.08S WCI  10          
$$

Regional Reports...Dakotas/MN
  
CITY           SKY/WX    TMP DP  RH WIND       PRES   REMARKS
Williston      CLOUDY    24  22  91 CALM      30.06R FOG              
Minot          FOG       24  22  91 CALM      30.10R VSB 1/2          
Dickinson      LGT SNOW  22  19  89 N5        30.03R FOG              
Beach          CLOUDY    28  28 100 N8        30.06S FOG     WCI  20  
Crosby         CLOUDY    12  12 100 S3        30.11R                  
Hettinger      CLOUDY    30  29  96 NW13      30.03R WCI  20          
Tioga          FOG       19  19 100 CALM      30.09S VSB 1/4          
Bismarck       CLOUDY    23  22  96 N8        30.08R WCI  14          
Grand Forks    CLOUDY    22  19  89 N13       30.11R WCI  10          
Fargo          CLOUDY    23  19  85 NE17      30.04R WCI   9          
Buffalo SD       N/A     29  26  89 NW12      30.02R WCI  19          
Rapid City     FAIR      33  21  61 N18       30.02R WCI  22          
Intl Falls     CLOUDY    24  19  81 NE9       30.11R WCI  14          
Duluth         LGT SNOW  27  25  92 E16       30.01R VSB 1   WCI  15  
Minneapolis    CLOUDY    30  27  88 SE8       29.97R FOG     WCI  22  
$$

Regional Reports...WY/ID/WA
  
CITY           SKY/WX    TMP DP  RH WIND       PRES   REMARKS
Buffalo WY     FAIR      22  11  62 NW5       30.07S                  
Cody           CLOUDY    35  14  42 W9        30.10F WCI  28          
Gillette       FAIR      24  16  71 W14       30.08S WCI  12          
Powell         CLOUDY    30  10  43 SE6       30.08S WCI  24          
Sheridan       FAIR      28  16  60 W6        30.10S WCI  22          
Yellowstone La   N/A     17  15  92 CALM      30.15S                  
Boise          CLOUDY    39  35  86 SE3       30.25S                  
Couer d'Alene  LGT RAIN  33  32  96 NE6       30.12F WCI  28          
Idaho Falls    CLOUDY    21  18  88 N3        30.24S                  
Salmon         CLOUDY    25  22  88 CALM      30.23R                  
Spokane        LGT RAIN  35  34  96 SE8       30.09F VSB 1   WCI  29  
Seattle        LGT RAIN  53  48  83 S9        29.95S                  
$$

Regional Reports...Alberta
  
CITY           SKY/WX    TMP DP  RH WIND       PRES   REMARKS
Calgary        PTCLDY    21  10  63 S7        29.88S WCI  13          
Cardston         N/A     32  21  64 SE5         N/A                   
Crowsnest Pass   N/A     34  25  69 W17G28      N/A  WCI  23          
Del Bonita       N/A     25  21  86 SW9         N/A  WCI  15          
Edmonton       CLEAR     12  12 100 S2        29.86F                  
Fort McMurray  PTCLDY     7   3  85 S6        29.87R WCI  -3          
High Level     FOG       12  10  92 CALM      29.75F VSB 3/8          
Lethbridge     CLEAR     25  21  86 S12       29.95S WCI  14          
Lloydminster   FRZ RAIN  19  18  93 SW5       29.93  VSB 1/8          
Medicine Hat   PTCLDY    16  10  79 SW10      29.99S WCI   3          
Peace River    PTCLDY     9   5  85 NE6       29.71F WCI  -1          
Pincher Creek  PTCLDY    34  23  64 MISG      29.96R                  
Raymond          N/A     32  23  69 SW9         N/A  WCI  24          
Fort Smith NWT CLOUDY    16  14  93 W5        29.85R                  
$$

Regional Reports...Saskatchewan
  
CITY           SKY/WX    TMP DP  RH WIND       PRES   REMARKS
Assiniboia       N/A     14  10  85 S2          N/A                   
Coronach         N/A     21  21 100 S3          N/A                   
Cypress Hills    N/A     25  12  58 S5          N/A                   
Estevan        SNOW      21  21 100 SE7       30.10S VSB 3/8 WCI  13  
La Ronge         N/A     16  14  93 S5          N/A                   
Moose Jaw        N/A      9   7  92 SE7         N/A  WCI  -3          
Prince Albert  FLURRIES  18  14  86 E6        30.04R WCI   9          
Regina         CLOUDY    16  14  93 SE12      30.07  FOG     WCI   3  
Rockglen         N/A     21  19  93 W5          N/A                   
Saskatoon      CLOUDY    23  21  93 SW8       29.99R WCI  14          
Swift Current  CLEAR     21  16  79 SW14      29.98R WCI   8          
Uranium City     N/A     14  12  92 S1          N/A                   
Val Marie        N/A     -4  -9  77 CALM        N/A                   
$$
  

SKY/WX - Weather  TMP - Temperature  DP - Dew Point  RH - Relative Humidity
WIND - Wind Direction/Speed PRES - Barometric Pressure VSB - Visibility
WCI - Wind Chill Index E13G22 Wind - East Wind 13 mph/Gusts of 22 mph